Time,TemperatureF,DewpointF,PressureIn,WindDirection,WindDirectionDegrees,WindSpeedMPH,WindSpeedGustMPH,Humidity,HourlyPrecipIn,Conditions,Clouds,dailyrainin,SoftwareType,DateUTC
2013-05-21 04:23:00,45.0,-99.9,-100.00,North,-999,-999.0,-999.0,-999,-99.99,,,0.03,,2013-05-21 10:23:00,
2013-05-21 04:33:00,45.0,-99.9,-100.00,North,-999,-999.0,-999.0,-999,-99.99,,,0.03,,2013-05-21 10:33:00,
2013-05-21 04:42:00,45.0,-99.9,-100.00,North,-999,-999.0,-999.0,-999,-99.99,,,0.03,,2013-05-21 10:42:00,
2013-05-21 05:12:00,46.0,-99.9,-100.00,North,-999,-999.0,-999.0,-999,0.00,,,0.02,,2013-05-21 11:12:00,
2013-05-21 05:22:00,46.0,-99.9,-100.00,North,-999,-999.0,-999.0,-999,0.00,,,0.02,,2013-05-21 11:22:00,
2013-05-21 05:32:00,46.0,-99.9,-100.00,North,-999,-999.0,-999.0,-999,0.00,,,0.02,,2013-05-21 11:32:00,
2013-05-21 05:42:00,46.0,-99.9,-100.00,North,-999,-999.0,-999.0,-999,0.00,,,0.02,,2013-05-21 11:42:00,
2013-05-21 06:11:00,47.0,-99.9,-100.00,North,-999,-999.0,-999.0,-999,0.00,,,-99.99,,2013-05-21 12:11:00,
2013-05-21 06:22:00,47.0,-99.9,-100.00,North,-999,-999.0,-999.0,-999,0.00,,,-99.99,,2013-05-21 12:22:00,
2013-05-21 06:32:00,47.0,-99.9,-100.00,North,-999,-999.0,-999.0,-999,0.00,,,-99.99,,2013-05-21 12:32:00,
2013-05-21 06:42:00,47.0,-99.9,-100.00,North,-999,-999.0,-999.0,-999,0.00,,,-99.99,,2013-05-21 12:42:00,
2013-05-21 07:12:00,47.0,-99.9,-100.00,North,-999,-999.0,-999.0,-999,0.00,,,0.01,,2013-05-21 13:12:00,
2013-05-21 07:22:00,47.0,-99.9,-100.00,North,-999,-999.0,-999.0,-999,0.00,,,0.01,,2013-05-21 13:22:00,
2013-05-21 07:32:00,47.0,-99.9,-100.00,North,-999,-999.0,-999.0,-999,0.00,,,0.01,,2013-05-21 13:32:00,
2013-05-21 07:42:00,47.0,-99.9,-100.00,North,-999,-999.0,-999.0,-999,0.00,,,0.01,,2013-05-21 13:42:00,
2013-05-21 08:11:00,50.0,-99.9,-100.00,North,-999,-999.0,-999.0,-999,0.00,,,0.00,,2013-05-21 14:11:00,
2013-05-21 08:22:00,50.0,-99.9,-100.00,North,-999,-999.0,-999.0,-999,0.00,,,0.00,,2013-05-21 14:22:00,
2013-05-21 08:32:00,50.0,-99.9,-100.00,North,-999,-999.0,-999.0,-999,0.00,,,0.00,,2013-05-21 14:32:00,
2013-05-21 08:42:00,50.0,-99.9,-100.00,North,-999,-999.0,-999.0,-999,0.00,,,0.00,,2013-05-21 14:42:00,
2013-05-21 09:11:00,55.0,-99.9,-100.00,North,-999,-999.0,-999.0,-999,0.00,,,0.01,,2013-05-21 15:11:00,
2013-05-21 09:22:00,55.0,-99.9,-100.00,North,-999,-999.0,-999.0,-999,0.00,,,0.01,,2013-05-21 15:22:00,
2013-05-21 09:33:00,55.0,-99.9,-100.00,North,-999,-999.0,-999.0,-999,0.00,,,0.01,,2013-05-21 15:33:00,
2013-05-21 09:43:00,55.0,-99.9,-100.00,North,-999,-999.0,-999.0,-999,0.00,,,0.01,,2013-05-21 15:43:00,
2013-05-21 11:12:00,66.0,-99.9,-100.00,North,-999,-999.0,-999.0,-999,-99.99,,,0.00,,2013-05-21 17:12:00,
2013-05-21 11:23:00,66.0,-99.9,-100.00,North,-999,-999.0,-999.0,-999,-99.99,,,0.00,,2013-05-21 17:23:00,
2013-05-21 11:33:00,66.0,-99.9,-100.00,North,-999,-999.0,-999.0,-999,-99.99,,,0.00,,2013-05-21 17:33:00,
2013-05-21 11:44:00,66.0,-99.9,-100.00,North,-999,-999.0,-999.0,-999,-99.99,,,0.00,,2013-05-21 17:44:00,
2013-05-21 12:13:00,69.0,-99.9,-100.00,North,-999,-999.0,-999.0,-999,0.00,,,0.00,,2013-05-21 18:13:00,
2013-05-21 12:22:00,69.0,-99.9,-100.00,North,-999,-999.0,-999.0,-999,0.00,,,0.00,,2013-05-21 18:22:00,
2013-05-21 12:32:00,69.0,-99.9,-100.00,North,-999,-999.0,-999.0,-999,0.00,,,0.00,,2013-05-21 18:32:00,
2013-05-21 12:42:00,69.0,-99.9,-100.00,North,-999,-999.0,-999.0,-999,0.00,,,0.00,,2013-05-21 18:42:00,
2013-05-21 13:12:00,69.0,-99.9,-100.00,North,-999,-999.0,-999.0,-999,0.00,,,0.00,,2013-05-21 19:12:00,
2013-05-21 13:22:00,69.0,-99.9,-100.00,North,-999,-999.0,-999.0,-999,0.00,,,0.00,,2013-05-21 19:22:00,
2013-05-21 13:32:00,69.0,-99.9,-100.00,North,-999,-999.0,-999.0,-999,0.00,,,0.00,,2013-05-21 19:32:00,
2013-05-21 13:42:00,69.0,-99.9,-100.00,North,-999,-999.0,-999.0,-999,0.00,,,0.00,,2013-05-21 19:42:00,
2013-05-21 14:11:00,70.0,-99.9,-100.00,North,-999,-999.0,-999.0,-999,0.00,,,0.00,,2013-05-21 20:11:00,
2013-05-21 14:22:00,70.0,-99.9,-100.00,North,-999,-999.0,-999.0,-999,0.00,,,0.00,,2013-05-21 20:22:00,
2013-05-21 14:33:00,70.0,-99.9,-100.00,North,-999,-999.0,-999.0,-999,0.00,,,0.00,,2013-05-21 20:33:00,
2013-05-21 14:42:00,70.0,-99.9,-100.00,North,-999,-999.0,-999.0,-999,0.00,,,0.00,,2013-05-21 20:42:00,
2013-05-21 15:11:00,72.0,-99.9,-100.00,North,-999,-999.0,-999.0,-999,0.00,,,0.00,,2013-05-21 21:11:00,
2013-05-21 15:22:00,72.0,-99.9,-100.00,North,-999,-999.0,-999.0,-999,0.00,,,0.00,,2013-05-21 21:22:00,
2013-05-21 15:33:00,72.0,-99.9,-100.00,North,-999,-999.0,-999.0,-999,0.00,,,0.00,,2013-05-21 21:33:00,
2013-05-21 15:44:00,72.0,-99.9,-100.00,North,-999,-999.0,-999.0,-999,0.00,,,0.00,,2013-05-21 21:44:00,
2013-05-21 16:13:00,71.0,-99.9,-100.00,North,-999,-999.0,-999.0,-999,0.00,,,0.00,,2013-05-21 22:13:00,
2013-05-21 16:23:00,71.0,-99.9,-100.00,North,-999,-999.0,-999.0,-999,0.00,,,0.00,,2013-05-21 22:23:00,
2013-05-21 16:34:00,71.0,-99.9,-100.00,North,-999,-999.0,-999.0,-999,0.00,,,0.00,,2013-05-21 22:34:00,
2013-05-21 16:42:00,71.0,-99.9,-100.00,North,-999,-999.0,-999.0,-999,0.00,,,0.00,,2013-05-21 22:42:00,
2013-05-21 17:12:00,74.0,-99.9,-100.00,North,-999,-999.0,-999.0,-999,0.01,,,0.01,,2013-05-21 23:12:00,
2013-05-21 17:23:00,74.0,-99.9,-100.00,North,-999,-999.0,-999.0,-999,0.01,,,0.01,,2013-05-21 23:23:00,
2013-05-21 17:32:00,74.0,-99.9,-100.00,North,-999,-999.0,-999.0,-999,0.01,,,0.01,,2013-05-21 23:32:00,
2013-05-21 17:42:00,74.0,-99.9,-100.00,North,-999,-999.0,-999.0,-999,0.01,,,0.01,,2013-05-21 23:42:00,
2013-05-21 18:12:00,73.0,-99.9,-100.00,North,-999,-999.0,-999.0,-999,0.00,,,0.01,,2013-05-22 00:12:00,
2013-05-21 18:22:00,73.0,-99.9,-100.00,North,-999,-999.0,-999.0,-999,0.00,,,0.01,,2013-05-22 00:22:00,
2013-05-21 18:32:00,73.0,-99.9,-100.00,North,-999,-999.0,-999.0,-999,0.00,,,0.01,,2013-05-22 00:32:00,
2013-05-21 18:42:00,73.0,-99.9,-100.00,North,-999,-999.0,-999.0,-999,0.00,,,0.01,,2013-05-22 00:42:00,
2013-05-21 19:11:00,72.0,-99.9,-100.00,North,-999,-999.0,-999.0,-999,0.00,,,0.01,,2013-05-22 01:11:00,
2013-05-21 19:22:00,72.0,-99.9,-100.00,North,-999,-999.0,-999.0,-999,0.00,,,0.01,,2013-05-22 01:22:00,
2013-05-21 19:32:00,72.0,-99.9,-100.00,North,-999,-999.0,-999.0,-999,0.00,,,0.01,,2013-05-22 01:32:00,
2013-05-21 19:42:00,72.0,-99.9,-100.00,North,-999,-999.0,-999.0,-999,0.00,,,0.01,,2013-05-22 01:42:00,
2013-05-21 20:12:00,70.0,-99.9,-100.00,North,-999,-999.0,-999.0,-999,0.00,,,0.01,,2013-05-22 02:12:00,
2013-05-21 20:22:00,70.0,-99.9,-100.00,North,-999,-999.0,-999.0,-999,0.00,,,0.01,,2013-05-22 02:22:00,
2013-05-21 20:32:00,70.0,-99.9,-100.00,North,-999,-999.0,-999.0,-999,0.00,,,0.01,,2013-05-22 02:32:00,
2013-05-21 20:42:00,70.0,-99.9,-100.00,North,-999,-999.0,-999.0,-999,0.00,,,0.01,,2013-05-22 02:42:00,
2013-05-21 21:11:00,67.0,-99.9,-100.00,North,-999,-999.0,-999.0,-999,0.00,,,0.01,,2013-05-22 03:11:00,
2013-05-21 21:22:00,67.0,-99.9,-100.00,North,-999,-999.0,-999.0,-999,0.00,,,0.01,,2013-05-22 03:22:00,
2013-05-21 21:34:00,67.0,-99.9,-100.00,North,-999,-999.0,-999.0,-999,0.00,,,0.01,,2013-05-22 03:34:00,
2013-05-21 21:43:00,67.0,-99.9,-100.00,North,-999,-999.0,-999.0,-999,0.00,,,0.01,,2013-05-22 03:43:00,
2013-05-21 22:13:00,64.0,-99.9,-100.00,North,-999,-999.0,-999.0,-999,0.00,,,0.01,,2013-05-22 04:13:00,
2013-05-21 22:23:00,64.0,-99.9,-100.00,North,-999,-999.0,-999.0,-999,0.00,,,0.01,,2013-05-22 04:23:00,
2013-05-21 22:33:00,64.0,-99.9,-100.00,North,-999,-999.0,-999.0,-999,0.00,,,0.01,,2013-05-22 04:33:00,
2013-05-21 22:43:00,64.0,-99.9,-100.00,North,-999,-999.0,-999.0,-999,0.00,,,0.01,,2013-05-22 04:43:00,
2013-05-21 23:12:00,62.0,-99.9,-100.00,North,-999,-999.0,-999.0,-999,0.00,,,-99.99,,2013-05-22 05:12:00,
2013-05-21 23:22:00,62.0,-99.9,-100.00,North,-999,-999.0,-999.0,-999,0.00,,,-99.99,,2013-05-22 05:22:00,
2013-05-21 23:32:00,62.0,-99.9,-100.00,North,-999,-999.0,-999.0,-999,0.00,,,-99.99,,2013-05-22 05:32:00,
2013-05-21 23:42:00,62.0,-99.9,-100.00,North,-999,-999.0,-999.0,-999,0.00,,,-99.99,,2013-05-22 05:42:00,